TimeEST,TemperatureF,Dew PointF,Humidity,Sea Level PressureIn,VisibilityMPH,Wind Direction,Wind SpeedMPH,Gust SpeedMPH,PrecipitationIn,Events,Conditions,WindDirDegrees,DateUTC
12:15 AM,20.1,14.4,78,30.05,3.0,WNW,11.5,-,N/A,Snow,Light Snow,290,2013-02-17 05:15:00
12:35 AM,19.2,10.9,70,30.05,10.0,WNW,15.0,21.9,N/A,,Overcast,300,2013-02-17 05:35:00
12:55 AM,18.7,9.5,67,30.06,10.0,WNW,11.5,20.7,N/A,,Mostly Cloudy,300,2013-02-17 05:55:00
1:15 AM,18.5,6.8,60,30.06,10.0,WNW,12.7,16.1,N/A,,Overcast,290,2013-02-17 06:15:00
1:35 AM,18.1,5.0,57,30.07,10.0,WNW,9.2,-,N/A,,Overcast,300,2013-02-17 06:35:00
1:55 AM,17.4,4.5,57,30.07,10.0,West,8.1,-,N/A,,Scattered Clouds,280,2013-02-17 06:55:00
2:15 AM,16.7,4.3,58,30.07,10.0,West,5.8,-,N/A,,Clear,280,2013-02-17 07:15:00
2:35 AM,16.7,3.2,55,30.07,10.0,WNW,9.2,-,N/A,,Clear,290,2013-02-17 07:35:00
2:55 AM,16.5,3.0,55,30.08,10.0,WNW,8.1,-,N/A,,Clear,290,2013-02-17 07:55:00
3:15 AM,15.8,3.0,57,30.08,10.0,WNW,5.8,-,N/A,,Clear,290,2013-02-17 08:15:00
3:35 AM,15.6,3.2,58,30.08,10.0,West,5.8,-,N/A,,Clear,280,2013-02-17 08:35:00
3:55 AM,15.4,3.4,59,30.08,10.0,West,8.1,-,N/A,,Clear,280,2013-02-17 08:55:00
4:15 AM,15.1,3.9,61,30.09,10.0,West,6.9,-,N/A,,Clear,280,2013-02-17 09:15:00
4:35 AM,14.9,4.1,62,30.09,10.0,West,4.6,-,N/A,,Clear,270,2013-02-17 09:35:00
4:55 AM,14.4,4.1,64,30.09,10.0,West,4.6,-,N/A,,Clear,270,2013-02-17 09:55:00
5:15 AM,13.8,4.5,66,30.10,10.0,West,6.9,-,N/A,,Clear,260,2013-02-17 10:15:00
5:35 AM,13.6,4.3,66,30.10,10.0,West,4.6,-,N/A,,Clear,260,2013-02-17 10:35:00
5:55 AM,13.5,4.8,68,30.11,10.0,West,6.9,-,N/A,,Clear,270,2013-02-17 10:55:00
6:15 AM,13.1,5.0,70,30.11,10.0,WSW,6.9,-,N/A,,Clear,250,2013-02-17 11:15:00
6:35 AM,13.3,5.2,70,30.12,10.0,West,6.9,-,N/A,,Clear,270,2013-02-17 11:35:00
6:55 AM,13.1,5.0,70,30.12,10.0,West,5.8,-,N/A,,Clear,260,2013-02-17 11:55:00
7:15 AM,12.4,5.0,72,30.13,10.0,West,5.8,-,N/A,,Clear,260,2013-02-17 12:15:00
7:35 AM,13.1,5.7,72,30.14,10.0,West,6.9,-,N/A,,Clear,260,2013-02-17 12:35:00
7:55 AM,14.2,6.1,70,30.14,10.0,West,6.9,-,N/A,,Clear,280,2013-02-17 12:55:00
8:15 AM,15.3,6.6,69,30.15,10.0,West,9.2,-,N/A,,Clear,270,2013-02-17 13:15:00
8:35 AM,16.0,7.5,69,30.16,10.0,West,11.5,17.3,N/A,,Clear,280,2013-02-17 13:35:00
8:55 AM,16.7,7.9,68,30.17,10.0,WNW,8.1,-,N/A,,Clear,290,2013-02-17 13:55:00
9:15 AM,18.0,9.0,68,30.17,10.0,WNW,11.5,-,N/A,,Clear,290,2013-02-17 14:15:00
9:55 AM,19.8,9.5,64,30.18,10.0,WNW,10.4,18.4,N/A,,Scattered Clouds,300,2013-02-17 14:55:00
10:15 AM,19.6,9.0,63,30.19,10.0,WNW,9.2,16.1,N/A,,Scattered Clouds,300,2013-02-17 15:15:00
10:35 AM,21.7,10.6,62,30.19,10.0,WNW,10.4,-,N/A,,Mostly Cloudy,290,2013-02-17 15:35:00
10:55 AM,21.7,8.8,57,30.19,10.0,NW,9.2,20.7,N/A,,Mostly Cloudy,310,2013-02-17 15:55:00
11:15 AM,21.9,8.8,57,30.20,10.0,West,10.4,-,N/A,,Mostly Cloudy,280,2013-02-17 16:15:00
11:35 AM,21.9,8.1,55,30.20,10.0,West,11.5,-,N/A,,Mostly Cloudy,280,2013-02-17 16:35:00
11:55 AM,22.8,8.8,55,30.20,10.0,West,5.8,-,N/A,,Mostly Cloudy,280,2013-02-17 16:55:00
12:15 PM,23.2,7.5,51,30.20,10.0,West,12.7,16.1,N/A,,Overcast,280,2013-02-17 17:15:00
12:35 PM,22.8,7.5,52,30.20,10.0,WNW,11.5,-,N/A,,Overcast,290,2013-02-17 17:35:00
12:55 PM,23.0,6.8,50,30.20,10.0,WNW,9.2,-,N/A,,Mostly Cloudy,300,2013-02-17 17:55:00
1:15 PM,23.9,7.0,49,30.19,10.0,WNW,10.4,21.9,N/A,,Overcast,300,2013-02-17 18:15:00
1:55 PM,24.4,7.0,48,30.19,10.0,WNW,10.4,-,N/A,,Overcast,300,2013-02-17 18:55:00
2:15 PM,25.7,7.9,47,30.18,10.0,West,10.4,17.3,N/A,,Overcast,280,2013-02-17 19:15:00
2:35 PM,25.7,7.0,45,30.19,10.0,West,11.5,17.3,N/A,,Overcast,270,2013-02-17 19:35:00
2:55 PM,27.3,6.8,42,30.18,10.0,West,13.8,20.7,N/A,,Overcast,270,2013-02-17 19:55:00
3:15 PM,25.3,5.9,44,30.19,10.0,WNW,10.4,17.3,N/A,,Mostly Cloudy,290,2013-02-17 20:15:00
3:35 PM,25.3,4.8,42,30.18,10.0,WNW,10.4,-,N/A,,Scattered Clouds,300,2013-02-17 20:35:00
3:55 PM,25.5,4.6,41,30.18,10.0,WNW,9.2,-,N/A,,Scattered Clouds,290,2013-02-17 20:55:00
4:15 PM,26.6,5.7,41,30.19,10.0,West,11.5,18.4,N/A,,Scattered Clouds,280,2013-02-17 21:15:00
4:35 PM,26.4,5.2,40,30.19,10.0,West,12.7,18.4,N/A,,Mostly Cloudy,270,2013-02-17 21:35:00
4:55 PM,27.3,5.2,39,30.19,10.0,WNW,12.7,16.1,N/A,,Scattered Clouds,290,2013-02-17 21:55:00
5:15 PM,27.1,4.8,39,30.19,10.0,WNW,9.2,-,N/A,,Scattered Clouds,300,2013-02-17 22:15:00
5:35 PM,26.6,5.2,40,30.20,10.0,WNW,11.5,-,N/A,,Clear,300,2013-02-17 22:35:00
5:55 PM,25.7,5.2,42,30.21,10.0,WNW,8.1,-,N/A,,Clear,290,2013-02-17 22:55:00
6:15 PM,24.6,6.3,46,30.22,10.0,NW,4.6,-,N/A,,Clear,310,2013-02-17 23:15:00
6:35 PM,23.9,6.3,47,30.22,10.0,NW,4.6,-,N/A,,Clear,320,2013-02-17 23:35:00
6:55 PM,23.7,5.9,47,30.22,10.0,Calm,Calm,-,N/A,,Clear,0,2013-02-17 23:55:00
7:15 PM,22.5,7.5,53,30.22,10.0,Calm,Calm,-,N/A,,Clear,0,2013-02-18 00:15:00
7:35 PM,19.8,9.5,64,30.23,10.0,Calm,Calm,-,N/A,,Clear,0,2013-02-18 00:35:00
7:55 PM,19.0,10.0,68,30.23,10.0,Calm,Calm,-,N/A,,Clear,0,2013-02-18 00:55:00
8:15 PM,19.4,10.0,67,30.23,10.0,Calm,Calm,-,N/A,,Clear,0,2013-02-18 01:15:00
8:35 PM,18.5,10.9,72,30.23,10.0,Calm,Calm,-,N/A,,Clear,0,2013-02-18 01:35:00
8:55 PM,17.6,11.1,76,30.24,10.0,Calm,Calm,-,N/A,,Clear,0,2013-02-18 01:55:00
9:15 PM,17.2,11.1,77,30.25,10.0,Calm,Calm,-,N/A,,Clear,0,2013-02-18 02:15:00
9:35 PM,16.7,10.0,75,30.25,10.0,Calm,Calm,-,N/A,,Clear,0,2013-02-18 02:35:00
9:55 PM,15.6,10.6,80,30.25,10.0,Calm,Calm,-,N/A,,Clear,0,2013-02-18 02:55:00
10:15 PM,15.6,10.8,81,30.25,10.0,Calm,Calm,-,N/A,,Clear,0,2013-02-18 03:15:00
10:35 PM,15.3,10.2,80,30.26,10.0,Calm,Calm,-,N/A,,Clear,0,2013-02-18 03:35:00
10:55 PM,14.0,9.5,82,30.26,10.0,Calm,Calm,-,N/A,,Clear,0,2013-02-18 03:55:00
11:15 PM,14.4,10.6,85,30.26,10.0,Calm,Calm,-,N/A,,Clear,0,2013-02-18 04:15:00
11:35 PM,14.0,10.0,84,30.26,10.0,Calm,Calm,-,N/A,,Clear,0,2013-02-18 04:35:00
11:55 PM,14.0,10.8,87,30.26,10.0,Calm,Calm,-,N/A,,Clear,0,2013-02-18 04:55:00